Showing default

FLOCK 4Q 27, 58282

Orbit data source: Space-Track

FLOCK 4Q 27, 58282 is a payload satellite owned by Planet (US) in SSO that was launched on Sat, 11 Nov 2023 UTC via an FALCON 9 launch vehicle from the Air Force Western Test Range (AFWTR). Payload-class satellites include a variety of spacecraft equipped with specific instruments for various scientific and technological missions. These include communications satellites like Starlink; space stations such as the ISS; scientific satellites like the Hubble; Earth observation satellites from companies like Planet Labs, Umbra, and HawkEye 360; GPS; miniature CubeSats for education and research; and military/defense satellites.

Loading next visibility...
Identifier
58282, 2023-174AC
Orbit
SSO
Country
Flag of USUS
Related business
Manufacturer
Planet
Mission
Operational Commercial Imaging
Bus & Motor
CUBESAT 3U, Unknown motor
Mass
5.7 kg wet, 5.7 kg dry
Launch date (UTC)
2023-11-11 (2 years ago)
Launch vehicle
FALCON 9
Launch site
Air Force Western Test Range (AFWTR)
Object type
Payload
Rocket body
Debris
Shape & HBR
Box + 2 Pan, 1.0 m
Radar Cross Section
0.072 m², Medium (>0.1 m² and < 1m²)

Expand to show TLE details & history
Last TLE update: 22 hours ago

TLE from 22 hours ago
0 FLOCK 4Q 27
1 58282U 23174AC  25288.22161381  .00024828  00000-0  62648-3 0  9994
2 58282  97.4040   8.6413 0005067 314.0458  46.0370 15.39826738107871
Epoch: 2025-10-15T05:19Z
TLE epoch observation values (Epoch: 2025-10-15T05:19:07.433Z)
Latitude
-0°
Longitude
-95.13847°
Altitude
447.338 km
Speed
7.645 km/s
True Right ascension
00h 34m 33s
True Declination
0° 00' 00"
Sunlit
Object was in full shadow at epoch
Visualization orbit readout
Latitude
Unknown
Longitude
Unknown
Altitude
Unknown
Speed
Unknown
Apparent Right ascension
Unknown
Apparent Declination
Unknown
Sunlit
N/A
Visualization observer readout
Local Sidereal Time
22:06:52
Azimuth
Unknown
Elevation
Unknown
Doppler factor
Unknown
Orbital elements
Apogee altitude
447.017 km
Perigee altitude
440.104 km
Semi-major axis
6,821.698 km
Eccentricity
0.00051
Inclination
97.404°
RAAN
8.6413°
Arg. of periapsis
314.0458°
True anomaly
46.07881°
Mean anomaly
46.037°
Eccentric anomaly
46.0579°
Mean motion
3.85216 °/min
Orbital period
93.45 mins
BSTAR
0.00062648
Loading maneuver chart data...
Computing Atmospheric mass density...

Documentation

Showing up to 5 results
|